sat.trackr.live / text

‹ back to catalog

STARLINK-4589

NORAD 53746 · 2022-107AY

PAYLOAD ACTIVE UNKNOWN

§ Identity

Operator
Country
US
Launch date
2022-09-05
Launch site
AFETR
Launch vehicle
Mass (kg)
RCS (m²)

Purposes: comms

External: N2YO · Heavens-Above · Gunter

§ Orbital elements

Epoch: 2026-05-24T20:55:33.438720Z

Period
95.44 min
Inclination
53.2169°
Eccentricity
0.0001866
Mean motion
15.08837697 rev/d
Perigee alt
538.5 km
Apogee alt
541.0 km
Semi-major
6,917.9 km
B*
3.2742e-5
RAAN
282.1713°
Arg perigee
52.6829°
Mean anomaly
307.4333°
Rev number
20,609

§ Raw data

STARLINK-45891 53746U 22107AY  26144.87191480  .00000233  00000+0  32742-4 0  99912 53746  53.2169 282.1713 0001866  52.6829 307.4333 15.08837697206094

JSON: /api/v1/satellites/53746 · /tle

For live sub-satellite position, see the globe view (requires WebGL).

§ Visibility from observer

Set your observer location to see the next 7 days of passes ≥ 10°. The values pass through the URL so the page stays shareable.

No JS? Fill the form by hand. The geolocation button needs JavaScript.